Weather History for Glasgow, MT

Change the Weather History Date:

Friday, May 24, 2013

  Actual Average Record
Temperature  
Mean Temperature 61 °F 58 °F  
Max Temperature 70 °F 70 °F 95 °F (1929)
Min Temperature 51 °F 45 °F 29 °F (1903)
Degree Days  
Heating Degree Days 4 8  
Month to date heating degree days 195 274  
Since 1 July heating degree days 8454 8281  
Cooling Degree Days 0 1  
Month to date cooling degree days 9 4  
Year to date cooling degree days 9 5  
Growing Degree Days 10 (Base 50)    
Moisture  
Dew Point 42 °F    
Average Humidity 58    
Maximum Humidity 89    
Minimum Humidity 26    
Precipitation  
Precipitation 0.03 in 0.07 in 0.86 in (2010)
Month to date precipitation 0.39 1.36  
Year to date precipitation 3.20 3.26  
Snow  
Snow 0.00 in 0.00 in 0.00 in (2002)
Month to date snowfall 0.0 1.1  
Since 1 July snowfall 62.3 34.7  
Snow Depth 0.00 in    
Sea Level Pressure  
Sea Level Pressure 29.85 in    
Wind  
Wind Speed 13 mph (South)    
Max Wind Speed 30 mph    
Max Gust Speed 40 mph    
Visibility 10 miles    
Events Rain , Thunderstorm    
T = Trace of Precipitation, MM = Missing Value Source: NWS Daily Summary

Daily Weather History Graph

Daily Weather History Graph

Search for Another Location

Airport:

Trip Planner

Search our weather history database for the weather conditions in past years. The results will help you decide how hot, cold, wet, or windy it might be!

Date:

Astronomy

May. 24, 2013 Rise Set
Actual Time 5:16 AM MDT 8:50 PM MDT
Civil Twilight 4:37 AM MDT 9:29 PM MDT
Nautical Twilight 3:45 AM MDT 10:22 PM MDT
Astronomical Twilight 2:34 AM MDT 11:34 PM MDT
Moon 8:33 PM MDT (5/24) 4:55 AM MDT (5/24)
Length of Visible Light 16h 52m
Length of Day
15h 34m
Full, 100% of the Moon is Illuminated
May 24
Full
May 24
Full
May 31
Last Quarter
Jun 8
New
Jun 16
First Quarter

Hourly Weather History & Observations

Time (MDT) Temp. Dew Point Humidity Pressure Visibility Wind Dir Wind Speed Gust Speed Precip Events Conditions
12:53 AM 61.0 °F 43.0 °F 52% 29.83 in 10.0 mi ESE 26.5 mph 36.8 mph N/A   Overcast
1:53 AM 59.0 °F 43.0 °F 55% 29.78 in 10.0 mi East 24.2 mph 33.4 mph N/A   Overcast
2:53 AM 57.9 °F 43.0 °F 58% 29.77 in 10.0 mi ESE 23.0 mph 32.2 mph N/A   Mostly Cloudy
3:53 AM 57.9 °F 44.1 °F 60% 29.76 in 10.0 mi ESE 21.9 mph 28.8 mph N/A   Overcast
4:53 AM 57.0 °F 44.1 °F 62% 29.77 in 10.0 mi SE 15.0 mph - N/A   Overcast
5:53 AM 57.0 °F 45.0 °F 64% 29.76 in 10.0 mi ESE 13.8 mph - N/A   Overcast
6:53 AM 57.0 °F 45.0 °F 64% 29.75 in 10.0 mi ESE 16.1 mph - N/A   Overcast
7:12 AM 57.2 °F 44.6 °F 63% 29.76 in 10.0 mi ESE 17.3 mph - N/A Thunderstorm Overcast
7:26 AM 57.2 °F 46.4 °F 67% 29.75 in 10.0 mi ESE 16.1 mph - N/A Thunderstorm Overcast
7:53 AM 55.0 °F 48.9 °F 80% 29.77 in 7.0 mi SE 13.8 mph - 0.01 in Rain Light Rain
8:53 AM 53.1 °F 48.9 °F 86% 29.80 in 10.0 mi WSW 12.7 mph 25.3 mph 0.02 in   Overcast
9:12 AM 51.8 °F 50.0 °F 94% 29.81 in 10.0 mi WSW 16.1 mph - N/A   Overcast
9:53 AM 52.0 °F 48.0 °F 86% 29.82 in 10.0 mi West 12.7 mph 21.9 mph N/A   Overcast
10:19 AM 55.4 °F 46.4 °F 72% 29.82 in 10.0 mi West 17.3 mph - N/A   Overcast
10:53 AM 57.0 °F 46.0 °F 67% 29.82 in 10.0 mi WNW 16.1 mph - N/A   Overcast
11:53 AM 59.0 °F 46.9 °F 64% 29.86 in 10.0 mi West 15.0 mph 25.3 mph 0.00 in   Overcast
12:07 PM 60.8 °F 46.4 °F 59% 29.87 in 10.0 mi West 18.4 mph 25.3 mph N/A   Mostly Cloudy
12:32 PM 59.0 °F 46.4 °F 63% 29.87 in 10.0 mi WNW 12.7 mph - N/A   Mostly Cloudy
12:49 PM 60.8 °F 46.4 °F 59% 29.88 in 10.0 mi West 11.5 mph 23.0 mph N/A   Mostly Cloudy
12:53 PM 60.1 °F 46.9 °F 62% 29.88 in 10.0 mi WNW 11.5 mph 19.6 mph N/A   Mostly Cloudy
1:53 PM 64.0 °F 45.0 °F 50% 29.88 in 10.0 mi WNW 9.2 mph - N/A   Mostly Cloudy
2:53 PM 66.0 °F 42.1 °F 42% 29.88 in 10.0 mi WSW 18.4 mph 23.0 mph N/A   Mostly Cloudy
3:53 PM 68.0 °F 37.0 °F 32% 29.89 in 10.0 mi WSW 13.8 mph 24.2 mph N/A   Clear
4:53 PM 68.0 °F 35.1 °F 30% 29.89 in 10.0 mi WSW 6.9 mph - N/A   Clear
5:53 PM 69.1 °F 33.1 °F 26% 29.89 in 10.0 mi West 9.2 mph - N/A   Partly Cloudy
6:53 PM 66.9 °F 33.1 °F 28% 29.89 in 10.0 mi South 8.1 mph - N/A   Clear
7:53 PM 66.0 °F 35.1 °F 32% 29.91 in 10.0 mi SE 8.1 mph - N/A   Clear
8:53 PM 57.9 °F 36.0 °F 44% 29.93 in 10.0 mi ESE 9.2 mph - N/A   Clear
9:53 PM 54.0 °F 35.1 °F 49% 29.96 in 10.0 mi East 10.4 mph - N/A   Clear
10:53 PM 53.1 °F 36.0 °F 52% 29.94 in 10.0 mi East 12.7 mph - N/A   Clear
11:53 PM 51.1 °F 36.0 °F 56% 29.94 in 10.0 mi East 11.5 mph - N/A   Clear